Powrót do katalogu

OPS 3367 A

AktywnyNawigacjaSSO
NORAD 734·PAYLOAD·🇺🇸 United States

Wystrzelony Jan 19, 1964 z Vandenberg Space Force Base

Loading…

Następne Przeloty (najbliższe 24 godziny)

TLE

ŚwieżeSource: Space-Track

Epoka: Sep 14, 2026, 06:15 UTC

1 00734U 64002B   26257.26062600  .00000059  00000-0  41481-4 0  9996
2 00734  98.9804 190.1607 0013455 289.9099  70.0632 14.29719916261491

Śledź OPS 3367 A w czasie rzeczywistym z AllMySat

Download on the App Store